This demonstration page uses our WeatherBlox Daily Observations layout. Learn more.

Left ArrowRight Arrow

34.02893, -84.19858

Hourly Observations for February 19, 2020

Temp ( °F °C ) Dew Point ( °F °C ) Humidity (%) Winds ( mph kmh ) Pressure ( in mb ) Visibility ( mi km ) Precip ( " mm )
12:33 am 00:33 Cloudy with Light Rain 57 13.9 57 13.9 100 100 W 3 6 30.13 1020 5 8 0.01 0.25
12:53 am 00:53 Cloudy with Light Rain 57 13.9 57 13.9 100 100 Calm 30.11 1020 5 8 0.02 0.51
1:22 am 01:22 Cloudy with Light Rain 56 13.3 56 13.3 100 100 W 3 6 30.12 1020 3 4 0.01 0.25
1:29 am 01:29 Cloudy with Light Rain 56 13.3 56 13.3 100 100 W 3 6 30.12 1020 6 10 0.01 0.25
1:42 am 01:42 Cloudy with Mist and Fog 56 13.3 56 13.3 100 100 Calm 30.11 1020 3 4 0.01 0.25
1:47 am 01:47 Cloudy with Mist and Fog 55 13 55 13 100 100 Calm 30.11 1020 1 1 0.01 0.25
1:53 am 01:53 Cloudy with Mist and Fog 56 13.3 56 13.3 100 100 Calm 30.11 1020 1 1 0.01 0.25
2:27 am 02:27 Cloudy with Mist and Fog 56 13.3 56 13.3 100 100 WSW 3 6 30.11 1020 1 1 0.00 0.00
2:43 am 02:43 Cloudy with Mist and Fog 56 13.3 56 13.3 100 100 NW 13 20 30.12 1020 1 2 0.00 0.00
2:51 am 02:51 Cloudy with Mist and Fog 55 13 55 13 100 100 NW 14 22 30.13 1020 3 5 0.00 0.00
2:53 am 02:53 Cloudy with Mist and Fog 54 12.2 54 12.2 100 100 NW 14 22 30.12 1020 5 8 0.00 0.00
3:04 am 03:04 Cloudy with Light Rain 54 12.2 54 12.2 100 100 NW 9 15 30.12 1020 7 11 0.00 0.00
3:53 am 03:53 Cloudy with Light Rain 53 11.7 52 11.1 96 96 WNW 10 17 30.14 1021 7 11 0.02 0.51
4:00 am 04:00 Cloudy with Light Rain 53 11.7 52 11.1 96 96 WNW 8 13 30.14 1021 10 16 0.00 0.00
4:53 am 04:53 Cloudy with Light Rain 52 11.1 51 10.6 97 97 WSW 3 6 30.12 1020 10 16 0.01 0.25
5:08 am 05:08 Cloudy with Light Rain 52 11.1 51 10.6 97 97 Calm 30.13 1020 10 16 0.00 0.00
5:53 am 05:53 Cloudy 50 10 49 9.4 96 96 WNW 10 17 30.16 1021 10 16 0.01 0.25
6:53 am 06:53 Cloudy 49 9.4 48 8.9 97 97 NW 7 11 30.18 1022 10 16 0.00 0.00
7:53 am 07:53 Cloudy 49 9.4 47 8.3 93 93 W 7 11 30.23 1024 9 14 0.00 0.00
8:53 am 08:53 Cloudy 48 8.9 47 8.3 96 96 NW 5 7 30.24 1024 10 16 0.00 0.00
9:53 am 09:53 Cloudy 48 8.9 46 7.8 93 93 WNW 7 11 30.27 1025 10 16 0.00 0.00
10:19 am 10:19 Mostly Cloudy 49 9.4 46 7.8 90 90 WNW 6 9 30.27 1025 10 16 0.00 0.00
10:53 am 10:53 Cloudy 49 9.4 46 7.8 90 90 NW 8 13 30.29 1026 10 16 0.00 0.00
11:53 am 11:53 Cloudy 50 10 46 7.8 86 86 NW 5 7 30.29 1026 10 16 0.00 0.00
12:14 pm 12:14 Cloudy 50 10 45 7.2 83 83 NW 9 15 30.30 1026 10 16 0.00 0.00
12:53 pm 12:53 Cloudy 50 10 46 7.8 86 86 NNW 9 15 30.29 1026 10 16 0.00 0.00
1:32 pm 13:32 Mostly Cloudy 50 10 46 7.8 86 86 NW 7 11 30.27 1025 10 16 0.00 0.00
1:53 pm 13:53 Partly Cloudy 51 10.6 46 7.8 83 83 NW 8 13 30.28 1025 10 16 0.00 0.00
1:59 pm 13:59 Mostly Cloudy 51 10.6 46 7.8 83 83 NW 6 9 30.28 1025 10 16 0.00 0.00
2:53 pm 14:53 Cloudy 51 10.6 46 7.8 83 83 NW 5 7 30.27 1025 10 16 0.00 0.00
3:53 pm 15:53 Cloudy 51 10.6 48 8.9 89 89 NNW 6 9 30.27 1025 10 16 0.00 0.00
4:35 pm 16:35 Cloudy 51 10.6 48 8.9 89 89 NNE 5 7 30.27 1025 10 16 0.00 0.00
4:53 pm 16:53 Cloudy 51 10.6 49 9.4 92 92 N 6 9 30.27 1025 8 13 0.00 0.00
5:21 pm 17:21 Cloudy with Mist and Fog 51 10.6 50 10 96 96 N 5 7 30.28 1025 2 3 0.00 0.00
5:28 pm 17:28 Cloudy with Mist and Fog 51 10.6 50 10 96 96 N 5 7 30.29 1026 2 2 0.00 0.00
5:53 pm 17:53 Cloudy with Mist and Fog 51 10.6 50 10 96 96 NNW 3 6 30.29 1026 2 2 0.00 0.00
6:24 pm 18:24 Cloudy with Light Rain 50 10 49 9.4 96 96 ESE 8 13 30.31 1026 2 3 0.01 0.25
6:37 pm 18:37 Cloudy 50 10 48 8.9 93 93 VRB 6 9 30.31 1026 7 11 0.01 0.25
6:48 pm 18:48 Cloudy 48 9 48 9 100 100 VRB 6 9 30.32 1027 7 11 0.01 0.25
6:53 pm 18:53 Cloudy 49 9.4 47 8.3 93 93 ENE 5 7 30.32 1027 7 11 0.01 0.25
7:53 pm 19:53 Cloudy 49 9.4 47 8.3 93 93 VRB 5 7 30.33 1027 10 16 0.00 0.00
8:53 pm 20:53 Cloudy 49 9.4 47 8.3 93 93 Calm 30.34 1027 10 16 0.00 0.00
9:53 pm 21:53 Cloudy 49 9.4 46 7.8 90 90 VRB 5 7 30.35 1028 10 16 0.00 0.00
10:19 pm 22:19 Cloudy 49 9.4 45 7.2 86 86 VRB 6 9 30.34 1028 10 16 0.00 0.00
10:53 pm 22:53 Cloudy 49 9.4 46 7.8 90 90 NNE 7 11 30.34 1028 10 16 0.00 0.00
11:12 pm 23:12 Cloudy 49 9.4 44 6.7 83 83 VRB 7 11 30.32 1027 10 16 0.00 0.00
11:53 pm 23:53 Cloudy 47 8.3 42 5.6 83 83 ENE 6 9 30.33 1027 10 16 0.00 0.00

Powered by AerisWeather